Wind_Speed
8 9 10 9 9 7 6 6 7 10 11 11 12 13 12 12 12 12 12 13 15 17 19 22 24 25 25 26 28 29 29 29 29 29 27 24 23 21 21 21 20 20
10 11 12 12 11 11 10 9 7 6 8 10 12 12 12 12 12 12 12 12 14 15 16 19 23 25 26 26 26 27 28 29 30 29 27 27 25 23 23 23 19 17
9 10 12 12 13 13 13 12 11 10 8 8 9 10 12 12 12 12 12 11 12 14 15 17 20 24 26 25 25 27 28 29 29 26 26 26 25 24 23 22 20 18
8 9 10 11 12 13 13 13 12 12 11 11 10 8 9 10 11 12 12 12 11 12 14 15 17 20 24 24 23 24 26 28 28 24 23 24 25 24 21 20 20 20
9 9 10 11 12 13 14 14 14 14 13 13 13 11 10 9 9 9 11 12 11 11 12 13 15 17 20 22 23 23 23 25 26 23 23 25 26 24 20 18 19 20
8 9 9 10 11 13 14 14 15 15 14 14 14 13 12 11 10 9 9 10 10 11 11 12 13 15 18 20 22 23 24 25 26 24 25 26 25 21 18 18 19 20
8 9 10 10 11 13 14 14 15 15 15 15 14 14 15 13 11 10 9 8 9 10 11 11 12 13 15 16 19 21 21 23 24 23 22 22 20 18 16 16 18 20
9 9 9 10 11 12 13 13 14 14 14 15 14 14 15 15 13 12 11 9 7 8 9 11 11 12 12 14 17 18 18 20 21 19 18 19 18 17 16 16 18 20
9 9 9 10 10 11 11 12 12 13 13 13 13 13 13 14 14 13 11 9 7 6 7 9 10 10 11 13 15 15 15 17 15 12 14 17 17 16 18 19 21 21
9 9 9 10 10 10 10 11 11 12 12 12 12 12 12 13 13 13 12 11 10 8 8 9 9 9 10 13 14 13 12 11 10 10 13 15 15 14 16 19 22 22
8 8 8 9 9 9 10 11 11 12 13 12 11 11 11 11 12 12 12 12 12 11 10 10 10 10 10 11 13 13 12 10 8 9 11 13 13 13 13 16 19 20
8 8 8 8 8 8 9 10 12 13 13 13 12 11 11 10 10 10 10 11 12 11 11 11 11 12 12 11 11 12 11 9 8 8 9 10 10 11 12 14 16 17
9 9 9 9 9 8 9 10 11 13 12 11 12 11 10 10 9 9 9 10 10 11 11 12 13 14 14 13 12 11 11 10 10 10 11 11 11 10 11 13 15 15
8 8 8 9 9 9 10 11 11 13 13 11 11 10 10 11 11 11 11 10 10 11 12 12 13 15 15 15 14 13 12 10 10 11 10 11 11 11 11 12 14 15
8 7 7 7 8 8 9 10 11 12 13 12 11 10 10 12 13 12 11 11 11 12 12 13 14 15 16 16 16 17 16 13 11 11 11 11 11 12 12 12 13 13
7 7 7 7 7 8 8 9 11 12 12 12 12 11 11 12 14 13 12 11 11 12 12 13 15 16 16 17 17 17 17 16 15 14 13 12 12 13 13 14 14 13
7 7 7 7 8 8 8 9 11 11 11 11 11 11 11 11 12 13 12 12 11 12 12 13 14 15 15 15 16 16 16 16 17 16 15 13 13 13 14 15 16 16
6 6 7 7 7 7 8 9 10 11 11 11 11 11 12 11 11 11 11 12 12 12 12 13 13 13 14 14 15 16 16 15 15 16 16 15 15 14 14 14 15 15
6 6 6 6 7 7 8 9 10 10 10 11 12 12 13 13 12 12 12 13 13 13 13 13 13 13 13 14 15 15 15 14 14 15 16 17 17 16 15 15 15 15
7 7 7 7 7 7 7 8 10 10 11 11 12 13 13 14 14 14 14 14 15 15 15 15 15 15 14 14 15 14 14 14 14 15 15 16 17 16 15 15 15 15
11 11 10 10 9 9 8 9 10 11 11 11 12 12 13 14 14 15 15 15 15 15 16 16 16 16 16 16 16 15 15 15 14 14 15 15 15 15 15 15 15 15
13 13 13 13 13 12 11 12 12 13 13 13 13 13 12 13 14 15 15 15 15 15 15 15 16 16 16 16 16 16 16 15 14 14 14 14 14 14 14 14 14 14
14 14 14 14 14 14 15 15 15 15 14 14 14 14 13 14 14 14 14 14 14 14 14 14 14 16 17 17 17 17 16 15 15 14 13 13 13 13 13 13 14 14
13 13 14 14 15 15 16 16 16 16 16 16 16 15 15 14 13 13 13 13 13 13 13 13 14 15 17 18 18 18 17 15 15 14 14 13 12 12 12 12 14 15
12 13 13 13 14 14 15 15 16 16 15 16 16 15 14 14 13 12 12 11 11 12 12 13 14 15 16 17 18 18 18 16 15 15 14 14 12 11 11 11 12 14
11 12 12 13 14 14 14 15 15 14 14 15 14 13 13 14 14 12 11 9 9 10 12 13 15 16 16 18 18 18 18 18 17 17 17 15 14 13 14 14 13 14
Wind_Direction
16 13 10 1 349 344 331 309 288 277 278 282 284 286 287 288 288 289 283 272 267 263 255 250 249 249 251 253 255 255 254 252 251 251 252 251 248 248 244 237 231 234
24 24 22 18 13 17 18 8 355 324 290 278 276 278 282 285 288 291 290 282 273 267 257 250 248 248 249 251 253 254 255 255 252 249 249 249 247 243 242 238 233 236
9 11 11 11 9 11 15 13 10 5 346 315 294 285 282 282 283 284 283 282 277 271 264 256 249 246 247 247 248 251 253 253 250 245 242 242 240 238 239 239 235 233
352 355 353 353 353 353 358 359 357 359 358 350 337 319 301 287 284 287 287 286 280 273 269 262 255 251 248 245 245 246 247 247 245 242 240 237 233 233 236 240 241 237
341 342 341 340 339 338 341 343 343 345 347 347 348 346 337 320 305 299 294 292 288 281 275 268 262 257 252 246 243 243 243 243 243 240 236 233 230 230 233 239 244 243
329 330 333 333 332 331 332 332 333 334 335 337 343 345 343 340 331 316 301 296 294 288 284 277 269 264 261 254 247 244 243 243 245 240 234 232 231 230 234 242 245 244
326 326 328 329 331 331 330 328 326 327 327 329 333 335 336 338 340 334 324 310 297 292 288 285 279 272 267 263 257 253 250 247 247 244 239 239 239 235 237 244 246 244
329 328 328 331 336 337 335 333 330 329 328 327 327 328 328 330 336 339 336 327 308 296 292 291 292 287 279 273 266 261 261 258 252 251 253 253 251 249 248 248 248 247
328 330 332 335 339 339 337 339 340 338 338 337 331 326 324 325 329 333 332 330 322 307 297 296 295 293 293 291 279 270 269 264 256 260 267 260 256 257 258 257 253 250
327 328 330 333 335 337 339 340 341 341 343 347 342 333 327 322 325 334 340 340 340 339 330 320 313 307 304 304 306 307 302 289 278 276 274 270 267 263 261 260 256 252
341 337 335 337 338 338 340 342 345 346 346 348 346 341 338 330 328 340 346 339 336 337 332 325 321 318 310 305 310 316 315 312 310 295 278 275 274 267 265 263 257 254
359 359 356 355 350 344 345 348 352 353 351 350 349 349 353 351 343 340 334 323 323 325 325 324 322 318 313 309 310 307 304 309 319 314 297 287 281 274 273 271 264 263
4 12 14 10 4 359 357 357 359 360 359 359 1 1 1 1 353 343 332 324 322 324 327 330 328 322 318 319 317 306 299 299 299 299 300 303 305 300 290 284 279 276
6 11 19 16 9 7 3 1 5 10 11 9 10 11 8 4 1 356 351 344 339 338 337 334 333 331 329 331 331 323 316 310 303 302 302 302 304 302 297 296 293 285
8 7 14 13 7 5 5 8 14 19 21 18 16 20 18 12 10 8 5 0 355 354 352 347 347 347 345 344 343 340 338 338 333 324 315 308 302 295 289 290 293 293
11 11 15 12 10 10 11 17 21 21 23 20 15 16 16 14 13 13 15 12 3 0 1 357 355 355 354 354 352 348 347 347 343 337 328 320 314 305 295 286 285 287
11 12 16 16 17 18 19 21 21 19 18 16 13 12 11 11 11 10 10 11 6 3 2 358 354 353 353 353 350 345 341 338 335 335 333 327 320 315 311 302 293 288
19 14 14 17 17 17 22 26 23 19 18 17 18 20 20 18 15 11 7 5 4 1 357 353 349 345 341 339 338 336 333 330 329 329 329 327 325 324 321 316 311 305
25 21 16 20 19 15 21 30 28 22 22 24 25 26 27 25 22 21 17 12 9 5 360 357 354 348 344 341 339 337 334 330 327 324 323 322 322 322 319 315 313 311
32 34 32 31 28 24 23 27 28 25 23 25 26 25 24 23 20 19 18 15 13 9 4 2 0 359 357 354 352 350 346 342 337 332 330 328 326 325 322 316 311 308
46 45 45 42 38 39 35 32 33 32 29 28 27 24 21 18 15 12 11 9 7 4 2 1 359 358 357 357 356 355 352 349 347 342 338 336 333 333 330 325 320 314
52 49 48 45 42 43 44 43 42 40 37 35 32 28 22 17 12 9 7 4 1 0 360 359 357 352 351 352 352 351 350 348 346 343 340 337 335 334 332 328 324 320
52 50 48 46 42 40 41 43 43 40 36 34 33 28 23 18 13 7 3 359 357 359 358 356 354 350 347 347 347 346 346 345 343 341 338 334 332 331 330 326 322 319
52 50 48 46 42 39 39 38 37 34 30 29 30 27 21 18 13 7 1 356 357 3 3 359 360 359 355 352 352 353 353 351 350 346 341 337 334 331 329 326 323 318
53 52 50 48 44 41 40 38 36 34 30 29 31 28 22 18 15 12 9 5 8 16 19 18 17 16 12 9 6 4 4 4 3 359 354 351 348 344 341 337 332 325
55 53 50 49 45 42 41 40 40 37 35 35 35 32 27 23 23 24 22 20 23 27 30 33 33 29 24 21 17 14 13 12 11 8 5 2 3 5 3 358 354 344
Height
1533 1532 1531 1530 1529 1528 1527 1526 1526 1526 1525 1525 1525 1524 1524 1523 1522 1521 1521 1520 1519 1519 1519 1519 1519 1520 1520 1520 1521 1522 1523 1523 1524 1526 1527 1528 1529 1531 1531 1530 1529 1529
1533 1532 1531 1530 1529 1528 1527 1526 1525 1525 1524 1524 1523 1523 1522 1521 1521 1520 1519 1518 1517 1517 1517 1517 1517 1517 1517 1518 1519 1520 1521 1521 1522 1523 1524 1525 1525 1527 1529 1528 1527 1527
1533 1532 1531 1530 1529 1528 1527 1526 1526 1525 1524 1523 1522 1521 1521 1520 1519 1519 1518 1517 1516 1515 1515 1515 1515 1515 1515 1515 1516 1517 1518 1519 1519 1520 1521 1521 1522 1524 1526 1525 1524 1523
1533 1532 1531 1530 1529 1528 1527 1527 1526 1525 1524 1523 1522 1521 1520 1519 1518 1517 1516 1515 1515 1514 1514 1513 1513 1513 1513 1513 1514 1514 1515 1517 1517 1518 1518 1519 1519 1521 1522 1522 1521 1520
1532 1531 1531 1530 1529 1528 1527 1526 1525 1525 1524 1523 1522 1520 1519 1518 1516 1516 1515 1514 1513 1513 1513 1512 1512 1512 1511 1511 1512 1512 1513 1514 1515 1515 1516 1517 1518 1518 1518 1518 1517 1517
1531 1531 1530 1529 1528 1527 1527 1526 1525 1524 1523 1522 1521 1520 1519 1517 1516 1515 1514 1514 1513 1512 1512 1511 1511 1510 1510 1510 1510 1510 1510 1511 1512 1512 1513 1515 1515 1514 1513 1513 1514 1514
1531 1530 1529 1528 1528 1527 1526 1525 1524 1523 1522 1522 1521 1520 1518 1517 1516 1515 1514 1513 1512 1512 1511 1510 1509 1509 1509 1508 1508 1508 1509 1510 1510 1510 1511 1512 1512 1510 1510 1510 1511 1511
1531 1530 1529 1528 1527 1526 1525 1524 1523 1522 1521 1521 1520 1519 1518 1516 1515 1514 1513 1512 1511 1511 1510 1509 1509 1508 1508 1507 1507 1506 1507 1508 1508 1509 1509 1510 1509 1508 1508 1508 1508 1509
1530 1529 1528 1527 1527 1526 1525 1524 1523 1522 1521 1520 1519 1518 1517 1516 1515 1513 1512 1511 1510 1510 1509 1509 1508 1507 1508 1507 1506 1506 1506 1505 1505 1506 1506 1507 1507 1507 1507 1506 1506 1506
1530 1529 1528 1527 1526 1526 1525 1524 1523 1521 1520 1519 1518 1517 1516 1516 1515 1513 1512 1511 1511 1510 1509 1509 1509 1508 1507 1507 1506 1505 1504 1503 1502 1503 1504 1503 1504 1504 1505 1504 1503 1503
1529 1529 1528 1527 1526 1526 1525 1524 1522 1521 1520 1519 1518 1517 1516 1515 1514 1513 1513 1512 1511 1510 1509 1509 1508 1507 1506 1506 1506 1504 1503 1502 1502 1502 1502 1501 1501 1501 1502 1502 1501 1501
1529 1528 1528 1527 1526 1525 1525 1524 1522 1521 1520 1519 1518 1516 1515 1515 1513 1513 1512 1511 1510 1509 1509 1508 1507 1507 1506 1505 1505 1504 1503 1503 1502 1502 1501 1500 1499 1499 1499 1500 1500 1500
1528 1528 1527 1527 1526 1525 1524 1524 1522 1521 1520 1519 1518 1516 1515 1514 1513 1512 1512 1511 1510 1509 1508 1508 1507 1506 1506 1505 1505 1504 1503 1503 1502 1501 1501 1500 1499 1498 1497 1498 1498 1498
1529 1528 1527 1526 1526 1525 1524 1524 1522 1521 1520 1519 1518 1517 1515 1514 1513 1512 1511 1510 1510 1509 1508 1507 1506 1506 1505 1504 1504 1503 1502 1502 1501 1501 1500 1500 1499 1498 1497 1497 1497 1496
1530 1528 1527 1527 1526 1525 1525 1523 1522 1522 1520 1519 1518 1517 1516 1514 1513 1512 1511 1510 1510 1509 1508 1507 1506 1505 1504 1503 1503 1502 1502 1501 1500 1500 1499 1498 1498 1496 1496 1496 1495 1495
1530 1529 1528 1527 1526 1525 1524 1523 1522 1522 1520 1520 1518 1517 1516 1515 1514 1512 1511 1511 1510 1509 1508 1507 1506 1505 1504 1503 1503 1502 1501 1501 1500 1500 1499 1498 1497 1496 1495 1494 1494 1494
1530 1529 1528 1527 1526 1525 1524 1523 1522 1521 1520 1520 1518 1517 1516 1515 1514 1513 1512 1511 1510 1509 1508 1507 1506 1505 1504 1504 1503 1502 1501 1501 1500 1499 1498 1498 1497 1496 1494 1493 1493 1492
1529 1529 1528 1527 1527 1526 1524 1523 1522 1521 1521 1520 1518 1517 1516 1515 1515 1514 1513 1512 1510 1509 1508 1507 1506 1505 1504 1503 1503 1502 1501 1500 1499 1499 1498 1497 1496 1495 1494 1493 1492 1491
1529 1529 1528 1527 1526 1526 1524 1523 1522 1521 1520 1519 1518 1517 1516 1516 1515 1514 1513 1512 1510 1509 1508 1507 1506 1505 1504 1503 1502 1501 1500 1499 1499 1498 1497 1496 1495 1494 1493 1492 1491 1490
1529 1528 1527 1527 1526 1525 1524 1523 1522 1521 1520 1519 1518 1517 1516 1516 1515 1514 1513 1512 1511 1509 1508 1507 1506 1505 1504 1503 1501 1501 1500 1499 1498 1497 1496 1495 1494 1493 1492 1491 1490 1489
1529 1528 1527 1526 1526 1525 1524 1523 1522 1521 1520 1519 1518 1517 1516 1516 1515 1514 1513 1512 1511 1509 1508 1507 1506 1504 1503 1503 1501 1501 1500 1499 1498 1497 1496 1494 1493 1492 1491 1490 1489 1487
1529 1528 1528 1527 1526 1525 1524 1523 1522 1521 1520 1519 1518 1518 1517 1516 1515 1514 1512 1511 1510 1509 1508 1507 1506 1504 1503 1502 1501 1500 1499 1498 1497 1496 1495 1494 1493 1492 1490 1489 1488 1486
1529 1529 1528 1527 1526 1525 1524 1523 1522 1521 1521 1520 1519 1518 1517 1516 1515 1514 1512 1511 1510 1509 1508 1507 1506 1504 1503 1502 1501 1500 1499 1498 1497 1496 1495 1494 1493 1491 1490 1489 1487 1486
1530 1529 1528 1527 1526 1525 1524 1523 1522 1522 1521 1520 1519 1518 1517 1516 1515 1514 1512 1511 1509 1508 1507 1506 1505 1504 1503 1501 1500 1499 1498 1497 1496 1495 1494 1493 1492 1491 1489 1488 1486 1484
1530 1529 1528 1528 1527 1526 1525 1524 1523 1522 1521 1520 1519 1518 1517 1516 1515 1514 1513 1511 1510 1508 1507 1506 1506 1504 1503 1502 1500 1499 1497 1496 1495 1494 1493 1492 1491 1490 1488 1487 1486 1483
1530 1530 1529 1528 1527 1526 1525 1524 1523 1523 1522 1521 1520 1519 1518 1517 1515 1514 1513 1512 1510 1509 1508 1507 1506 1505 1504 1502 1501 1499 1498 1496 1495 1493 1492 1491 1489 1488 1487 1486 1485 1483